User: anonymous   Login
Location: Vancouver
(49.2500°N, 123.1330°W)
Time: 10:08:53
(UTC-07:00)
Language:

YAOGAN 6 - Orbit

View from above orbital plane
View from above orbital plane
View from above satellite
View from above satellite

Ground track
Ground track

The orbit data is extracted from the following two-line orbital elements,

1 34839U 09021A   17296.15648814  .00000862  00000-0  36027-4 0  9999
2 34839  97.1284 340.9311 0027398 224.2649 135.6399 15.25877458472099
Epoch (UTC): 23 October 2017 03:45:20
Eccentricity: 0.0027398
inclination: 97.1284°
perigee height: 469 km
apogee height: 507 km
right ascension of ascending node: 340.9311°
argument of perigee: 224.2649°
revolutions per day: 15.25877458
mean anomaly at epoch: 135.6399°
orbit number at epoch: 47209

The dashed part of the orbit path shows where the satellite is in the earth's shadow,  

DLR